Regional Weather Roundup
Issued by NWS

Home | Current Version | Previous Version | Graphics & Text | Print | Product List | Glossary On
Versions: 1 2 3 4 5 6 7 8 9 10 11 12 13 14 15 16 17 18 19 20 21 22 23 24 25 26 27 28 29 30 31 32 33 34 35 36 37 38 39 40 41 42 43 44 45 46 47 48 49 50
000
ASUS45 KPSR 210200
RWRAZ

PRELIMINARY ARIZONA REGIONAL HOURLY WEATHER ROUNDUP
NATIONAL WEATHER SERVICE PHOENIX AZ
700 PM MST MON OCT 20 2014

NOTE: FAIR INDICATES FEW OR NO CLOUDS BELOW 12,000 FEET WITH NO
SIGNIFICANT WEATHER AND/OR OBSTRUCTIONS TO VISIBILITY.

AZZ001>003-036-210300-
NORTHWEST ARIZONA

CITY           SKY/WX    TMP DP  RH WIND       PRES   REMARKS
KINGMAN        CLEAR     67  45  45 S9        29.95R
$$

AZZ004>008-015-016-018-210300-
NORTH CENTRAL ARIZONA

CITY           SKY/WX    TMP DP  RH WIND       PRES   REMARKS
GRAND CANYON   CLEAR     45  35  68 CALM      30.14R
PRESCOTT       CLEAR     60  43  53 S7        30.05R
FLAGSTAFF      PTCLDY    50  41  71 CALM      30.18R
PAYSON         CLEAR     63  43  48 SE5       30.08R
$$

AZZ009>014-017-210300-
NORTHEAST ARIZONA

CITY           SKY/WX    TMP DP  RH WIND       PRES   REMARKS
WINSLOW        NOT AVBL
SAINT JOHNS    PTCLDY    57  46  66 S7        30.11R
$$

AZZ023-210300-
GREATER PHOENIX AREA

CITY           SKY/WX    TMP DP  RH WIND       PRES   REMARKS
PHOENIX        PTCLDY    83  49  30 SW5       29.81R
GLENDALE       PTCLDY    82  52  34 VRB3      29.83R
DEER VALLEY    CLEAR     80  49  33 CALM      29.83R
SCOTTSDALE     CLEAR     82  48  30 CALM      29.85R
MESA-GATEWAY   CLEAR     79  48  34 NW3       29.85R
CHANDLER       PTCLDY    81  50  34 VRB5      29.83R
$$

AZZ027-028-210300-
SOUTHWEST MARICOPA COUNTY AND PINAL COUNTY

CITY           SKY/WX    TMP DP  RH WIND       PRES   REMARKS
CASA GRANDE    CLEAR     77  46  33 CALM      29.84R
GILA BEND      CLEAR     79  48  34 NW2       29.82R
$$

AZZ503-504-507>509-210300-
SOUTHEAST ARIZONA

CITY           SKY/WX    TMP DP  RH WIND       PRES   REMARKS
TUCSON         CLOUDY    78  47  33 NE5       29.91R
DAVIS-MONTHAN  PTCLDY    76  49  38 N3        29.90R
NOGALES        PTCLDY    63  46  54 NE8       29.97R
SIERRA VISTA   MOCLDY    64  48  55 S12       30.03R
SAFFORD        CLEAR     68  49  50 E7        29.96R
$$

AZZ020-021-025-026-031-210300-
SOUTHWEST ARIZONA

CITY           SKY/WX    TMP DP  RH WIND       PRES   REMARKS
YUMA           CLEAR     88  48  25 SW3       29.76R
$$

CAZ031-033-041-043-047-048-061-210300-
SOUTHERN CALIFORNIA

CITY           SKY/WX    TMP DP  RH WIND       PRES   REMARKS
DOWNTOWN L.A.  CLEAR     69  61  75 VRB3      29.87R
L.A. AIRPORT   PTCLDY    67  62  84 W13       29.88R
SAN DIEGO      PTCLDY    69  60  73 NW5       29.90R
BURBANK        CLEAR     69  59  70 S6        29.88R
ONTARIO        PTCLDY    71  60  68 W9        29.88R
RIVERSIDE      CLEAR     73  59  61 W6        29.88R
PALM SPRINGS   PTCLDY    88  50  27 N5        29.79R
EL CENTRO NAS  PTCLDY    85  52  32 NE3       29.74R
IMPERIAL       CLEAR     84  52  33 CALM      29.74R
BLYTHE         CLEAR     86  47  25 CALM      29.77R
$$

NVZ020-UTZ003-210300-
SOUTHERN NEVADA-UTAH

CITY           SKY/WX    TMP DP  RH WIND       PRES   REMARKS
LAS VEGAS      NOT AVBL
SALT LAKE CITY PTCLDY    66  39  37 NE5       29.91R
$$

NMZ009-TXZ055-210300-
NEW MEXICO-WEST TEXAS

CITY           SKY/WX    TMP DP  RH WIND       PRES   REMARKS
ALBUQUERQUE    LGT RAIN  59  51  75 NE12      30.16R
EL PASO        CLOUDY    65  54  67 S9        30.06R
$$


........................KEY........................
SKY/WX - SKY CONDITION/WEATHER
TMP    - TEMPERATURE IN FAHRENHEIT
DP     - DEW POINT IN FAHRENHEIT
RH     - RELATIVE HUMIDITY IN PERCENT
WIND   - DIRECTION AND SPEED IN MILES PER HOUR (MPH)
VRB    - VARIABLE WIND DIRECTION
PRES   - MEAN SEA LEVEL PRESSURE IN INCHES OF MERCURY
         F - FALLING PRESSURE   R - RISING PRESSURE
         S - STEADY PRESSURE
VSB    - VISIBILITY IN MILES
HX     - HEAT INDEX IN FAHRENHEIT
WCI    - WIND CHILL INDEX IN FAHRENHEIT
TC     - TEMPERATURE IN CELSIUS WHICH IS ALSO KNOWN AS
         TEMPERATURE IN CENTIGRADE
AFB    - AIR FORCE BASE
         LUKE AFB IS LUKE AIR FORCE BASE
         DAVIS-MONTHAN IS DAVIS-MONTHAN AIR FORCE BASE
NAS    - NAVAL AIR STATION
         EL CENTRO NAS IS EL CENTRO NAVAL AIR STATION
N/A    - NOT AVAILABLE


USA.gov is the U.S. government's official web portal to all federal, state and local government web resources and services.